Weather reports worldwide

Advertisment
Strasbourg, France (7190): temperature & dewpoint: 19.09.2018 23:00:00 - 25.09.2018 23:00:00 (CEST)Strasbourg, France (7190): temperature 5cm: 19.09.2018 23:00:00 - 25.09.2018 23:00:00 (CEST)Strasbourg, France (7190): temperature -20cm & temperature -100cm: 19.09.2018 23:00:00 - 25.09.2018 23:00:00 (CEST)Strasbourg, France (7190): wind speed & gusts: 19.09.2018 23:00:00 - 25.09.2018 23:00:00 (CEST)Strasbourg, France (7190): wind direction: 19.09.2018 23:00:00 - 25.09.2018 23:00:00 (CEST)Strasbourg, France (7190): reduced air pressure: 19.09.2018 23:00:00 - 25.09.2018 23:00:00 (CEST)Strasbourg, France (7190): visibility: 19.09.2018 23:00:00 - 25.09.2018 23:00:00 (CEST)Strasbourg, France (7190): sunshine duration: 19.09.2018 23:00:00 - 25.09.2018 23:00:00 (CEST)Strasbourg, France (7190): precipitation: 19.09.2018 23:00:00 - 25.09.2018 23:00:00 (CEST)
Date & Time tt [°C] td [°C] tt 5cm [°C] tt -20cm [°C] tt -100cm [°C] ff [km/h] ff [kn] fx [km/h] fx [kn] dd ppp [hPa] vv [km] sd [min] rr [mm]
25.09.2018 23:00:00 9,5 3,0 7,3 17,5 19,3 7 4 23 12 NNE 1036,8 60 0 0,0
25.09.2018 22:00:00 10,5 2,8 8,0 17,8 19,3 15 8 20 11 NE 1036,5 60 0 0,0
25.09.2018 21:00:00 10,6 2,4 7,9 17,9 19,3 9 5 20 11 NNE 1036,1 60 0 0,0
25.09.2018 20:00:00 12,4 2,5 10,7 18,0 19,4 14 8 25 14 NNE 1035,4 60 0 0,0
25.09.2018 19:00:00 14,7 1,9 13,4 17,9 19,4 19 10 36 19 NE 1035,3 47 50 0,0
25.09.2018 18:00:00 16,1 0,6 15,5 17,6 19,4 25 13 44 24 NE 1035,3 30 60 0,0
25.09.2018 17:00:00 17,0 1,4 20,4 17,2 19,4 27 14 42 23 NE 1035,5 29 60 0,0
25.09.2018 16:00:00 17,2 2,0 21,2 16,8 19,4 28 15 40 22 NNE 1035,9 35 60 0,0
25.09.2018 15:00:00 17,3 2,5 20,9 16,3 19,4 22 12 40 22 NNE 1036,1 38 60 0,0
25.09.2018 14:00:00 16,5 3,2 20,3 15,9 19,4 20 11 43 23 ENE 1036,6 36 60 0,0
25.09.2018 13:00:00 15,5 3,9 19,1 15,6 19,4 21 12 38 20 NNE 1037,0 36 60 0,0
25.09.2018 12:00:00 14,4 4,7 17,9 15,4 19,4 18 10 33 18 NE 1037,4 31 60 0,0
25.09.2018 11:00:00 13,1 5,5 16,1 15,4 19,5 15 8 28 15 NNE 1037,5 29 60 0,0
25.09.2018 10:00:00 11,5 6,4 13,1 15,5 19,4 15 8 26 14 NNE 1037,5 33 60 0,0
25.09.2018 09:00:00 9,4 5,8 9,0 15,8 19,5 15 8 22 12 NNE 1037,3 33 60 0,0
25.09.2018 08:00:00 6,7 4,9 3,9 16,1 19,5 10 5 16 8 N 1037,6 25 17 0,0
25.09.2018 07:00:00 5,7 3,9 3,6 16,3 19,5 8 4 13 7 N 1037,3 32 0 0,0
25.09.2018 06:00:00 5,7 3,7 3,6 16,6 19,5 4 2 10 6 N 1037,0 46 0 0,0
25.09.2018 05:00:00 5,8 3,8 4,1 16,9 19,5 5 3 13 7 W 1037,3 20 0 0,0
25.09.2018 04:00:00 6,5 3,8 4,8 17,2 19,5 4 2 13 7 NW 1037,2 58 0 0,0
25.09.2018 03:00:00 7,3 4,6 4,9 17,4 19,5 13 7 16 9 N 1037,1 52 0 0,0
25.09.2018 02:00:00 6,4 4,2 5,1 17,7 19,5 11 6 14 8 NNW 1037,2 52 0 0,0
25.09.2018 01:00:00 6,9 4,7 5,6 18,0 19,5 10 5 14 8 N 1036,9 51 0 0,0
25.09.2018 00:00:00 8,1 4,9 6,4 18,3 19,6 8 4 11 6 N 1036,4 59 0 0,0
24.09.2018 23:00:00 9,1 5,1 8,4 18,5 19,5 7 4 13 7 NNW 1036,1 60 0 0,0
24.09.2018 22:00:00 10,1 5,3 8,1 18,7 19,5 7 4 11 6 NNW 1035,7 60 0 0,0
24.09.2018 21:00:00 11,2 4,9 9,7 18,9 19,6 6 4 16 9 NNW 1035,1 60 0 0,0
24.09.2018 20:00:00 11,6 4,8 10,2 18,9 19,6 5 3 19 10 NNW 1034,7 60 0 0,0
24.09.2018 19:00:00 14,4 3,2 12,9 18,9 19,6 7 4 35 19 N 1033,8 60 42 0,0
24.09.2018 18:00:00 15,9 2,7 15,2 18,7 19,6 11 6 27 15 NNW 1033,4 49 45 0,0
24.09.2018 17:00:00 16,4 2,8 15,9 18,4 19,6 14 8 28 15 N 1033,4 45 38 0,0
24.09.2018 16:00:00 17,0 2,9 18,5 18,0 19,6 12 6 31 17 N 1033,3 57 51 0,0
24.09.2018 15:00:00 16,3 3,0 17,4 17,5 19,6 8 4 32 17 N 1033,7 46 54 0,0
24.09.2018 14:00:00 16,2 1,9 21,1 17,2 19,6 14 8 36 20 N 1034,1 43 60 0,0
24.09.2018 13:00:00 15,9 4,6 15,9 16,9 19,6 15 8 34 19 N 1034,2 21 55 0,0
24.09.2018 12:00:00 14,5 4,8 16,4 16,8 19,6 18 10 50 27 N 1034,3 40 49 0,0
24.09.2018 11:00:00 13,6 7,1 17,2 16,9 19,6 11 6 24 13 NNE 1034,5 31 56 0,0
24.09.2018 10:00:00 12,3 6,8 15,3 17,0 19,6 12 6 27 14 N 1034,1 38 60 0,0
24.09.2018 09:00:00 10,7 6,8 11,6 17,2 19,7 11 6 20 11 N 1033,2 43 60 0,0
24.09.2018 08:00:00 9,5 6,6 8,5 17,4 19,6 6 4 19 10 NNW 1032,5 56 19 0,0
24.09.2018 07:00:00 9,5 6,6 8,6 17,6 19,7 10 6 19 10 NNW 1031,3 60 0 0,0
24.09.2018 06:00:00 10,2 6,9 9,9 17,8 19,6 9 5 16 9 NNW 1030,2 60 0 0,0
24.09.2018 05:00:00 10,3 6,8 10,0 18,0 19,7 8 4 16 8 N 1029,4 60 0 0,0
24.09.2018 04:00:00 10,3 6,4 8,9 18,2 19,7 9 5 14 7 NE 1028,6 60 0 0,0
24.09.2018 03:00:00 10,7 6,3 9,8 18,5 19,7 10 6 30 16 N 1027,7 60 0 0,0
24.09.2018 02:00:00 11,4 7,7 11,2 18,7 19,7 21 11 33 18 NW 1026,5 60 0 0,0
24.09.2018 01:00:00 11,8 8,1 11,6 19,0 19,7 22 12 36 19 NW 1024,8 60 0 0,0
24.09.2018 00:00:00 11,9 8,7 11,0 19,3 19,7 16 9 31 17 NW 1023,5 60 0 0,0
23.09.2018 23:00:00 12,8 9,4 12,4 19,5 19,7 19 11 35 19 NW 1021,4 60 0 0,0
23.09.2018 22:00:00 13,5 10,3 13,2 19,7 19,7 18 10 38 20 NW 1019,7 56 0 0,0
23.09.2018 21:00:00 14,5 11,8 13,7 19,8 19,7 16 9 44 24 NW 1017,5 40 0 1,0
23.09.2018 20:00:00 15,9 14,1 15,0 19,9 19,7 23 12 51 28 WNW 1013,6 17 0 2,1
23.09.2018 19:00:00 16,4 15,6 16,0 19,8 19,7 31 17 70 38 WNW 1011,2 0,7 0 12,8
23.09.2018 18:00:00 24,2 15,9 23,9 19,7 19,7 35 19 75 40 SSW 1008,2 51 2 0,0
23.09.2018 17:00:00 24,2 16,2 23,5 19,6 19,8 44 24 81 44 SSW 1008,5 30 0 0,0
23.09.2018 16:00:00 23,6 16,1 22,5 19,3 19,7 42 23 71 38 SSW 1009,9 35 6 0,0
23.09.2018 15:00:00 23,5 16,0 23,9 19,0 19,8 38 20 64 35 SSW 1011,1 43 2 0,0
23.09.2018 14:00:00 24,3 16,0 25,7 18,7 19,7 45 24 83 45 SW 1012,4 16 52 0,0
23.09.2018 13:00:00 24,0 16,3 24,5 18,4 19,7 46 25 71 38 SW 1012,8 23 52 0,0
23.09.2018 12:00:00 23,8 15,8 22,1 18,3 19,8 36 19 62 34 SW 1013,9 31 11 0,0
23.09.2018 11:00:00 21,4 15,5 21,1 18,3 19,8 37 20 61 33 SW 1014,7 34 0 0,0
23.09.2018 10:00:00 19,8 15,0 18,8 18,3 19,8 22 12 46 25 SSW 1015,0 33 0 0,0
23.09.2018 09:00:00 19,6 14,2 19,0 18,3 19,8 24 13 49 26 SSW 1015,0 35 0 0,0
23.09.2018 08:00:00 19,9 13,1 17,6 18,4 19,8 22 12 38 21 SSW 1014,9 45 0 0,0
23.09.2018 07:00:00 18,1 12,3 16,3 18,4 19,8 19 10 32 17 S 1014,9 39 0 0,0
23.09.2018 06:00:00 16,9 10,7 14,8 18,5 19,8 16 8 27 15 S 1015,4 60 0 0,0
23.09.2018 05:00:00 16,0 10,5 13,1 18,6 19,8 14 8 24 13 S 1016,1 59 0 0,0
23.09.2018 04:00:00 15,3 9,4 14,8 18,7 19,8 10 5 21 12 SE 1017,2 59 0 0,0
23.09.2018 03:00:00 15,3 9,4 14,0 18,8 19,8 14 8 27 14 S 1017,8 60 0 0,0
23.09.2018 02:00:00 15,2 8,4 14,3 19,0 19,9 16 9 26 14 S 1019,0 60 0 0,0
23.09.2018 01:00:00 15,0 7,8 14,2 19,1 19,8 10 5 19 11 SSE 1019,6 60 0 0,0
23.09.2018 00:00:00 15,0 8,0 14,3 19,2 19,9 7 4 18 10 SSE 1020,5 60 0 0,0
22.09.2018 23:00:00 16,2 7,1 14,5 19,3 19,9 14 7 36 19 SSW 1020,5 60 0 0,0
22.09.2018 22:00:00 15,1 7,9 13,1 19,4 19,9 11 6 28 15 S 1020,6 60 0 0,0
22.09.2018 21:00:00 15,4 9,1 13,5 19,5 19,9 3 2 8 5 SSE 1020,9 58 0 0,0
22.09.2018 20:00:00 16,5 5,7 15,2 19,5 19,9 7 4 16 9 WNW 1020,5 60 0 0,0
22.09.2018 19:00:00 17,2 5,5 16,7 19,4 19,9 8 4 16 8 WNW 1020,5 60 0 0,0
22.09.2018 18:00:00 18,6 4,7 18,8 19,2 19,9 8 5 22 12 NW 1020,6 60 2 0,0
22.09.2018 17:00:00 19,3 4,6 20,2 18,9 19,9 14 8 22 12 NW 1021,2 59 2 0,0
22.09.2018 16:00:00 20,6 3,3 20,4 18,5 19,9 10 5 23 12 SW 1021,7 51 51 0,0
22.09.2018 15:00:00 19,1 4,8 20,5 18,2 19,9 6 4 34 18 WSW 1022,3 49 43 0,0
22.09.2018 14:00:00 18,9 6,4 19,4 17,8 19,9 9 5 26 14 SW 1022,8 55 43 0,0
22.09.2018 13:00:00 18,0 7,1 21,2 17,6 19,9 15 8 26 14 SSW 1023,9 43 52 0,0
22.09.2018 12:00:00 16,2 7,4 18,2 17,5 20,0 10 6 16 9 S 1024,3 55 5 0,0
22.09.2018 11:00:00 14,9 9,5 16,9 17,5 19,9 6 4 17 9 S 1025,0 49 18 0,0
22.09.2018 10:00:00 13,7 9,7 13,9 17,5 19,9 9 5 13 7 S 1024,8 48 39 0,0
22.09.2018 09:00:00 12,3 10,2 11,5 17,7 19,9 8 5 18 10 S 1025,1 42 34 0,0
22.09.2018 08:00:00 10,4 9,5 8,5 17,9 19,9 12 6 18 10 S 1024,7 36 21 0,0
22.09.2018 07:00:00 10,3 8,6 8,1 18,0 19,9 7 4 13 7 S 1024,2 45 0 0,0
22.09.2018 06:00:00 9,8 8,1 8,2 18,2 19,9 8 5 13 7 SSE 1024,1 56 0 0,0
22.09.2018 05:00:00 11,3 8,3 10,6 18,4 19,9 10 5 18 10 SW 1023,7 58 0 0,0
22.09.2018 04:00:00 11,5 8,4 8,8 18,6 19,9 10 6 16 8 S 1023,8 56 0 0,0
22.09.2018 03:00:00 11,3 8,2 8,8 18,9 19,9 5 3 10 6 SSW 1024,0 60 0 0,0
22.09.2018 02:00:00 10,6 7,7 8,7 19,1 19,9 8 4 10 6 SSE 1023,3 60 0 0,0
22.09.2018 01:00:00 11,6 8,1 9,9 19,3 19,9 8 4 15 8 S 1022,8 60 0 0,0
22.09.2018 00:00:00 12,6 8,5 10,8 19,5 19,9 7 4 23 13 SSE 1022,4 52 0 0,0
21.09.2018 23:00:00 14,7 8,6 13,0 19,7 19,9 19 10 32 17 WSW 1021,4 58 0 0,0
21.09.2018 22:00:00 13,6 9,6 12,9 19,8 19,9 18 10 33 18 SSW 1020,8 54 0 0,0
21.09.2018 21:00:00 13,8 9,6 13,1 20,0 19,9 18 10 24 13 SSW 1019,7 56 0 0,0
21.09.2018 20:00:00 14,8 9,6 14,0 20,1 19,9 11 6 20 11 SSW 1019,1 60 0 0,0
21.09.2018 19:00:00 15,3 10,1 14,5 20,2 19,9 10 5 24 13 SSW 1017,8 60 20 0,0
21.09.2018 18:00:00 14,8 11,0 12,4 20,4 19,9 16 8 53 29 SW 1016,6 50 0 0,6
21.09.2018 17:00:00 15,1 12,0 13,8 20,4 19,9 39 21 62 34 WNW 1014,7 14 0 0,0
21.09.2018 16:00:00 24,3 12,3 24,1 20,3 19,9 25 13 49 27 WSW 1011,4 49 0 0,0
21.09.2018 15:00:00 24,4 11,0 24,0 20,3 19,9 25 14 58 31 SW 1010,8 27 0 -
21.09.2018 14:00:00 24,3 9,5 23,4 20,2 19,9 31 17 50 27 WSW 1011,3 36 0 0,0
21.09.2018 13:00:00 24,3 13,5 23,2 20,2 19,9 21 11 35 19 SW 1011,1 15 0 0,0
21.09.2018 12:00:00 24,0 14,7 23,4 20,1 19,9 14 8 34 18 S 1011,2 30 0 0,0
21.09.2018 11:00:00 23,6 14,9 22,7 20,1 19,9 18 10 35 19 S 1011,5 28 10 0,0
21.09.2018 10:00:00 22,0 14,6 20,6 20,1 19,9 22 12 36 19 S 1011,0 25 29 0,0
21.09.2018 09:00:00 19,8 14,6 18,2 20,2 19,9 16 9 30 16 S 1011,1 25 53 0,0
21.09.2018 08:00:00 17,8 14,5 12,4 20,5 19,9 18 10 29 16 SSW 1011,5 0,8 23 0,0
21.09.2018 07:00:00 14,6 13,6 10,5 20,7 19,9 3 2 12 7 S 1011,8 21 0 0,0
21.09.2018 06:00:00 14,1 12,5 10,7 20,9 19,9 3 1 5 3 SW 1012,1 13 0 0,0
21.09.2018 05:00:00 14,8 13,2 11,2 21,1 19,9 2 1 9 5 W 1012,6 4,6 0 0,0
21.09.2018 04:00:00 14,3 12,3 11,3 21,3 19,9 8 4 10 6 SW 1013,3 14 0 0,0
21.09.2018 03:00:00 15,1 13,3 11,5 21,5 19,9 4 2 7 4 SSW 1013,5 14 0 0,0
21.09.2018 02:00:00 15,7 13,5 12,7 21,7 19,9 5 3 13 7 SW 1013,8 19 0 0,0
21.09.2018 01:00:00 16,8 14,1 13,8 21,9 19,9 4 2 10 5 SSE 1014,1 20 0 0,0
21.09.2018 00:00:00 17,2 13,9 13,8 22,1 19,9 6 4 10 6 SSW 1014,4 21 0 0,0
20.09.2018 23:00:00 17,7 14,2 14,4 22,3 19,9 6 4 8 5 SSW 1014,8 19 0 0,0
20.09.2018 22:00:00 19,0 15,1 16,2 22,4 19,9 4 2 9 5 WSW 1015,0 24 0 0,0
20.09.2018 21:00:00 21,3 14,9 16,5 22,5 19,9 5 3 7 4 SW 1015,3 20 0 0,0
20.09.2018 20:00:00 23,1 14,9 19,3 22,5 19,9 5 3 15 8 N 1015,2 14 0 0,0
20.09.2018 19:00:00 26,0 14,8 22,9 22,3 19,9 5 3 10 5 SE 1015,1 39 49 0,0
20.09.2018 18:00:00 29,1 14,5 27,4 22,0 19,9 6 3 14 8 SSE 1015,3 41 60 0,0
20.09.2018 17:00:00 29,5 13,7 32,7 21,6 19,9 6 4 19 11 S 1015,9 35 60 0,0
20.09.2018 16:00:00 30,0 13,7 34,1 21,3 19,9 5 3 21 12 SSW 1016,4 37 60 0,0
20.09.2018 15:00:00 29,1 14,5 33,6 20,8 19,9 7 4 20 11 SSE 1017,2 20 60 0,0
20.09.2018 14:00:00 28,3 14,2 33,2 20,4 19,9 5 3 18 10 S 1018,2 28 60 0,0
20.09.2018 13:00:00 27,7 15,4 31,5 20,1 19,9 5 3 18 10 SE 1018,9 19 60 0,0
20.09.2018 12:00:00 25,5 15,2 29,0 20,0 19,9 8 4 15 8 SE 1019,8 26 60 0,0
20.09.2018 11:00:00 22,8 15,6 27,1 19,9 19,9 9 5 16 9 S 1020,4 20 60 0,0
20.09.2018 10:00:00 20,2 15,2 23,2 20,0 19,9 5 3 13 7 S 1020,6 24 60 0,0
20.09.2018 09:00:00 17,8 15,2 14,4 20,1 19,9 4 2 8 4 S 1020,8 16 40 0,0
20.09.2018 08:00:00 14,5 13,4 11,6 20,3 19,9 5 3 8 4 S 1020,8 15 8 0,0
20.09.2018 07:00:00 14,3 12,7 12,2 20,5 19,9 4 2 9 5 SW 1020,6 16 0 0,0
20.09.2018 06:00:00 14,2 12,8 12,4 20,7 19,9 5 3 9 5 SSW 1020,3 21 0 0,0
20.09.2018 05:00:00 14,6 13,0 12,9 20,8 19,9 7 4 9 5 SW 1020,3 19 0 0,0
20.09.2018 04:00:00 15,1 14,0 12,5 21,0 19,9 4 2 6 3 S 1019,9 19 0 0,0
20.09.2018 03:00:00 15,9 14,3 13,6 21,3 19,9 3 1 7 4 N 1020,2 21 0 0,0
20.09.2018 02:00:00 16,3 14,0 13,4 21,4 19,9 4 2 7 4 SSE 1020,1 22 0 0,0
20.09.2018 01:00:00 16,6 14,6 14,1 21,6 19,9 3 2 11 6 N 1020,1 23 0 0,0
20.09.2018 00:00:00 17,9 13,6 14,7 21,8 19,9 4 2 11 6 SSE 1019,9 23 0 0,0
19.09.2018 23:00:00 18,5 14,6 15,0 21,9 19,9 4 2 8 5 SSW 1019,5 28 0 0,0

tt = temperature
td = dewpoint
tt 5cm = temperature 5cm
tt -20cm = temperature -20cm
tt -100cm = temperature -100cm
ff = wind speed
fx = gusts
dd = wind direction
ppp = reduced air pressure
vv = visibility
sd = sunshine duration
rr = precipitation

Next stations